Weather History for Fort Dodge, IA

Change the Weather History Date:

Sunday, October 7, 2012

  Actual Average Record
Temperature  
Mean Temperature 36 °F -  
Max Temperature 55 °F 66 °F 86 °F (1966)
Min Temperature 17 °F 40 °F 17 °F (2012)
Degree Days  
Heating Degree Days 29    
Moisture  
Dew Point 20 °F    
Average Humidity 54    
Maximum Humidity 93    
Minimum Humidity 26    
Precipitation  
Precipitation 0.00 in - - ()
Sea Level Pressure  
Sea Level Pressure 30.14 in    
Wind  
Wind Speed 4 mph (SW)    
Max Wind Speed 16 mph    
Max Gust Speed 23 mph    
Visibility 10 miles    
Events      
Averages and records for this station are not official NWS values.
T = Trace of Precipitation, MM = Missing Value Source: NWS Daily Summary

Daily Weather History Graph

Daily Weather History Graph

Search for Another Location

Airport:

Trip Planner

Search our weather history database for the weather conditions in past years. The results will help you decide how hot, cold, wet, or windy it might be!

Date:

Astronomy

Oct. 07, 2012 Rise Set
Actual Time 7:21 AM CDT 6:46 PM CDT
Civil Twilight 6:53 AM CDT 7:15 PM CDT
Nautical Twilight 6:20 AM CDT 7:47 PM CDT
Astronomical Twilight 5:47 AM CDT 8:20 PM CDT
Moon 11:54 PM CDT (10/7) 2:04 PM CDT (10/7)
Length of Visible Light 12h 22m
Length of Day
11h 25m
Waning Gibbous, 56% of the Moon is Illuminated
Oct 7
Waning Gibbous
Oct 8
Last Quarter
Oct 15
New
Oct 21
First Quarter
Oct 29
Full

Hourly Weather History & Observations

Time (CDT) Temp. Windchill Dew Point Humidity Pressure Visibility Wind Dir Wind Speed Gust Speed Precip Events Conditions
12:15 AM 26.6 °F - 17.6 °F 69% 30.27 in 10.0 mi Calm Calm - N/A   Clear
12:35 AM 26.6 °F - 17.6 °F 69% 30.27 in 10.0 mi Calm Calm - N/A   Clear
12:55 AM 24.8 °F - 15.8 °F 69% 30.27 in 10.0 mi Calm Calm - N/A   Clear
1:15 AM 24.8 °F - 17.6 °F 74% 30.26 in 10.0 mi Calm Calm - N/A   Clear
1:35 AM 24.8 °F - 17.6 °F 74% 30.27 in 10.0 mi Calm Calm - N/A   Clear
1:55 AM 23.0 °F 18.4 °F 14.0 °F 68% 30.27 in 10.0 mi West 3.5 mph - N/A   Clear
2:15 AM 23.0 °F - 15.8 °F 74% 30.27 in 10.0 mi Calm Calm - N/A   Clear
2:35 AM 23.0 °F - 15.8 °F 74% 30.27 in 10.0 mi Calm Calm - N/A   Clear
2:55 AM 21.2 °F - 15.8 °F 80% 30.26 in 10.0 mi Calm Calm - N/A   Clear
3:15 AM 21.2 °F - 15.8 °F 80% 30.26 in 10.0 mi Calm Calm - N/A   Clear
3:35 AM 23.0 °F - 17.6 °F 80% 30.26 in 10.0 mi Calm Calm - N/A   Clear
3:55 AM 23.0 °F - 17.6 °F 80% 30.25 in 10.0 mi Calm Calm - N/A   Clear
4:15 AM 21.2 °F - 15.8 °F 80% 30.25 in 10.0 mi Calm Calm - N/A   Clear
4:35 AM 21.2 °F - 15.8 °F 80% 30.24 in 10.0 mi Calm Calm - N/A   Clear
4:55 AM 19.4 °F - 15.8 °F 86% 30.24 in 10.0 mi Calm Calm - N/A   Clear
5:15 AM 21.2 °F - 17.6 °F 86% 30.23 in 10.0 mi Calm Calm - N/A   Clear
5:35 AM 17.6 °F - 12.2 °F 79% 30.23 in 10.0 mi Calm Calm - N/A   Clear
5:55 AM 19.4 °F - 17.6 °F 93% 30.23 in 10.0 mi Calm Calm - N/A   Clear
6:15 AM 19.4 °F - 17.6 °F 93% 30.23 in 10.0 mi Calm Calm - N/A   Clear
6:55 AM 17.6 °F - 12.2 °F 79% 30.24 in 10.0 mi Calm Calm - N/A   Clear
7:15 AM 17.6 °F - 12.2 °F 79% 30.23 in 1.0 mi Calm Calm - N/A   Clear
7:35 AM 19.4 °F - 15.8 °F 86% 30.24 in 10.0 mi Calm Calm - N/A   Clear
7:55 AM 19.4 °F - 17.6 °F 93% 30.24 in 10.0 mi Calm Calm - N/A   Clear
8:15 AM 21.2 °F - 19.4 °F 93% 30.24 in 10.0 mi Calm Calm - N/A   Partly Cloudy
8:55 AM 26.6 °F - 19.4 °F 74% 30.25 in 10.0 mi Calm Calm - N/A   Clear
9:15 AM 28.4 °F - 21.2 °F 74% 30.24 in 10.0 mi Calm Calm - N/A   Clear
9:55 AM 35.6 °F 29.9 °F 24.8 °F 65% 30.23 in 10.0 mi SSW 6.9 mph - N/A   Clear
10:15 AM 39.2 °F 35.9 °F 24.8 °F 56% 30.24 in 10.0 mi SW 4.6 mph - N/A   Clear
10:35 AM 42.8 °F 38.6 °F 24.8 °F 49% 30.23 in 10.0 mi SSW 6.9 mph - N/A   Clear
10:55 AM 44.6 °F 39.7 °F 24.8 °F 46% 30.22 in 10.0 mi SW 9.2 mph - N/A   Clear
11:15 AM 44.6 °F 39.7 °F 24.8 °F 46% 30.22 in 10.0 mi SW 9.2 mph - N/A   Clear
11:35 AM 46.4 °F 41.5 °F 24.8 °F 43% 30.21 in 10.0 mi WSW 10.4 mph 16.1 mph N/A   Clear
11:55 AM 46.4 °F 41.1 °F 23.0 °F 40% 30.21 in 10.0 mi WSW 11.5 mph 17.3 mph N/A   Clear
12:15 PM 48.2 °F - 21.2 °F 34% 30.19 in 10.0 mi SW 11.5 mph 18.4 mph N/A   Clear
12:35 PM 48.2 °F - 21.2 °F 34% 30.19 in 10.0 mi SW 10.4 mph - N/A   Clear
12:55 PM 50.0 °F - 23.0 °F 35% 30.17 in 10.0 mi West 9.2 mph - N/A   Clear
1:15 PM 51.8 °F - 21.2 °F 30% 30.16 in 10.0 mi West 8.1 mph - N/A   Clear
1:35 PM 53.6 °F - 21.2 °F 28% 30.14 in 10.0 mi WSW 12.7 mph 21.9 mph N/A   Clear
1:55 PM 53.6 °F - 21.2 °F 28% 30.12 in 10.0 mi SSW 10.4 mph 18.4 mph N/A   Clear
2:15 PM 53.6 °F - 21.2 °F 28% 30.11 in 10.0 mi WSW 12.7 mph 21.9 mph N/A   Clear
2:35 PM 53.6 °F - 21.2 °F 28% 30.10 in 10.0 mi SW 15.0 mph 23.0 mph N/A   Clear
2:55 PM 55.4 °F - 23.0 °F 29% 30.09 in 10.0 mi WSW 13.8 mph 17.3 mph N/A   Clear
3:15 PM 55.4 °F - 21.2 °F 26% 30.08 in 10.0 mi SSW 13.8 mph 18.4 mph N/A   Clear
3:35 PM 55.4 °F - 23.0 °F 29% 30.08 in 10.0 mi WSW 16.1 mph 19.6 mph N/A   Clear
3:55 PM 55.4 °F - 23.0 °F 29% 30.07 in 10.0 mi SW 12.7 mph 20.7 mph N/A   Clear
4:15 PM 55.4 °F - 23.0 °F 29% 30.06 in 10.0 mi SW 16.1 mph 19.6 mph N/A   Clear
4:35 PM 55.4 °F - 23.0 °F 29% 30.05 in 10.0 mi SW 16.1 mph 23.0 mph N/A   Clear
4:55 PM 55.4 °F - 23.0 °F 29% 30.05 in 10.0 mi SW 13.8 mph 20.7 mph N/A   Clear
5:15 PM 55.4 °F - 23.0 °F 29% 30.04 in 10.0 mi SW 11.5 mph - N/A   Clear
5:35 PM 53.6 °F - 24.8 °F 33% 30.03 in 10.0 mi SW 10.4 mph - N/A   Clear
5:55 PM 53.6 °F - 24.8 °F 33% 30.02 in 10.0 mi SW 12.7 mph - N/A   Clear
6:15 PM 51.8 °F - 24.8 °F 35% 30.02 in 10.0 mi SW 11.5 mph - N/A   Clear
6:35 PM 51.8 °F - 23.0 °F 33% 30.02 in 10.0 mi SW 10.4 mph - N/A   Clear
6:55 PM 48.2 °F - 21.2 °F 34% 30.01 in 10.0 mi SSW 6.9 mph - N/A   Clear
7:15 PM 46.4 °F 42.9 °F 21.2 °F 37% 30.01 in 10.0 mi SSW 6.9 mph - N/A   Clear
7:35 PM 44.6 °F 40.7 °F 21.2 °F 39% 30.02 in 10.0 mi South 6.9 mph - N/A   Clear
7:55 PM 44.6 °F 39.7 °F 21.2 °F 39% 30.02 in 10.0 mi South 9.2 mph - N/A   Clear
8:15 PM 44.6 °F 39.7 °F 21.2 °F 39% 30.02 in 10.0 mi South 9.2 mph - N/A   Clear
8:35 PM 44.6 °F 38.8 °F 23.0 °F 43% 30.02 in 10.0 mi South 11.5 mph 16.1 mph N/A   Clear
8:55 PM 44.6 °F 38.8 °F 23.0 °F 43% 30.01 in 10.0 mi South 11.5 mph - N/A   Clear
9:15 PM 42.8 °F 36.6 °F 23.0 °F 46% 30.01 in 10.0 mi South 11.5 mph - N/A   Clear
9:35 PM 42.8 °F 37.0 °F 23.0 °F 46% 30.01 in 10.0 mi South 10.4 mph - N/A   Clear
9:55 PM 42.8 °F 36.6 °F 23.0 °F 46% 30.01 in 10.0 mi SSW 11.5 mph - N/A   Clear
10:15 PM 42.8 °F 36.6 °F 23.0 °F 46% 30.01 in 10.0 mi SSW 11.5 mph - N/A   Clear
10:35 PM 42.8 °F 37.0 °F 23.0 °F 46% 30.00 in 10.0 mi SSW 10.4 mph - N/A   Clear
10:55 PM 42.8 °F 37.0 °F 23.0 °F 46% 30.00 in 10.0 mi SSW 10.4 mph - N/A   Clear
11:15 PM 42.8 °F 36.6 °F 23.0 °F 46% 29.99 in 10.0 mi SSW 11.5 mph - N/A   Clear
11:35 PM 42.8 °F 36.6 °F 23.0 °F 46% 29.99 in 10.0 mi SSW 11.5 mph - N/A   Clear
11:55 PM 41.0 °F 33.9 °F 23.0 °F 49% 29.98 in 10.0 mi SSW 12.7 mph 17.3 mph N/A   Clear